Preview of NWS' New Version of Forecast
This preview is not operational and should not be used for support decisions.

Regional Weather Roundup (RWR)

Issued by Gray - Portland, ME (GYX)

                            
000
ASUS41 KGYX 201905
RWRGYX
WEATHER ROUNDUP FOR MAINE AND NEW HAMPSHIRE
NATIONAL WEATHER SERVICE GRAY ME
300 PM EDT SAT APR 20 2019

MEZ002-005-006-010-012-015-018-020-021-024-026-027-029-202000-
MAINE
  
CITY           SKY/WX    TMP DP  RH WIND       PRES   REMARKS
PORTLAND       FOG       55  54  96 S12G18    29.91F VSB 3/4          
SANFORD        PTSUNNY   63  61  93 SE10      29.88F                  
BAR HARBOR     LGT RAIN  50  50 100 S12       30.02R VSB 1/2          
WISCASSET      CLOUDY    57  57 100 S6        29.97F FOG              
ROCKLAND       LGT RAIN  51  51 100 S10       29.99S VSB 3/4          
FRYEBURG       RAIN      64  63  96 VRB3      29.87F FOG              
LEWISTONAUBURN CLOUDY    61  60  97 SE7       29.92S                  
AUGUSTA        LGT RAIN  58  58 100 S9        29.95F FOG              
WATERVILLE     RAIN      49  48  97 NE12      29.93S                  
BANGOR         CLOUDY    48  46  93 N8        30.00R FOG              
GREENVILLE       N/A     41  40  96 SW3       29.98R                  
MILLINOCKET    CLOUDY    44  41  89 NE8       30.04R FOG              
HOULTON        CLOUDY    42  40  92 VRB6      30.03S FOG              
PRESQUE ISLE   LGT RAIN  42  41  96 E8        30.07R FOG              
FRENCHVILLE    LGT RAIN  41  37  86 E8G16     30.06R FOG              
CARIBOU        LGT RAIN  42  40  92 NE6       30.05R FOG              
$$

NHZ002-005-008-009-011-012-014-202000-
NEW HAMPSHIRE
  
CITY           SKY/WX    TMP DP  RH WIND       PRES   REMARKS
ROCHESTER      LGT RAIN  65  63  93 SE9G16    29.87F                  
NASHUA         CLOUDY    71  69  93 SE6       29.83F                  
MANCHESTER     CLOUDY    70  66  87 S8        29.82F                  
CONCORD        PTSUNNY   70  65  84 S10       29.84F                  
LACONIA        PTSUNNY   69  65  86 S15G22    29.85F                  
PLYMOUTH       RAIN      61  60  94 CALM      29.84F                  
BERLIN         LGT RAIN  62  61  96 CALM      29.87F                  
WHITEFIELD     LGT RAIN  63  59  87 CALM      29.85F                  
JAFFREY        CLOUDY    68  61  78 S12       29.86R                  
KEENE          LGT RAIN  68  63  84 S13G20    29.83S                  
LEBANON        CLOUDY    66  62  87 NE5       29.81F FOG              
MT WASHINGTON  LGT RAIN  46  46 100 S40G47      N/A  VSB 1/16         
$$

VTZ005-007-008-202000-
VERMONT
  
CITY           SKY/WX    TMP DP  RH WIND       PRES   REMARKS
ST JOHNSBURY     N/A     53  53 100 MISG      29.84S                  
MONTPELIER     LGT RAIN  49  47  93 CALM      29.88F                  
BURLINGTON     LGT RAIN  43  41  93 N6        29.83F                  
$$

MAZ007-012-024-CTZ003-RIZ002-NYZ038-NYZ072-202000-
SOUTHERN NEW ENGLAND AND NY
  
CITY           SKY/WX    TMP DP  RH WIND       PRES   REMARKS
BOSTON         LGT RAIN  70  64  81 S30G37    29.87F                  
WORCESTER      CLOUDY    64  61  90 S14G33    29.87S                  
NANTUCKET      CLOUDY    57  53  86 S21G28    29.98S FOG              
PROVIDENCE     LGT RAIN  62  61  96 SE15G31   29.88F FOG              
HARTFORD       CLOUDY    69  62  78 S16G25    29.80F                  
ALBANY         DRIZZLE   68  61  78 SE14G22   29.73S                  
NEW YORK CITY  CLOUDY    59  57  93 S21G29    29.76R FOG              
$$

ANZ081-ANZ082-ANZ150-NHZ014-MEZ023>029-202000-
COASTAL MARINE OBSERVATIONS
  
STATION/POSITION TIME  TEMP    WIND        PRES    WAVE
                       AIR SEA DIR/SP/G            HT/PER
                 (UTC) (F)     (DEG/KT/KT) (MB)    (FT/S)
ISLE OF SHOALS   1800   52     160/ 26/ 28 1012.2S
JEFFREYS LEDGE   1838      42                N/A     6/ 8
CASHES LEDGE BUO 1850   49 42              1015.0F   8/ 9
$$

.............KEY..............
   WCI - WIND CHILL
   TC  - TEMPERATURE IN CELSIUS
   VSB - VISIBILITY IN MILES
   HX  - HEAT INDEX
   FAIR- INDICATES FEW OR NO CLOUDS BELOW 12,000 FT, WITH NO 
         SIGNIFICANT WEATHER AND/OR OBSTRUCTIONS TO VISIBILITY.